Home > Weather > Sunrise Manor > Past weeks

Flag for USA Past Weather in Sunrise Manor, Nevada, USA — Yesterday and Last 2 Weeks

Now
98 °F

Sunny.


Feels Like: 95 °F
Forecast: 81 / 107 °F
Wind: 3 mph from North

Location: Nellis Air Force Base

Current Time: Jun 29, 2016 at 11:16:22 AM

Latest Report: Jun 29, 2016 at 9:58 AM


Visibility: 10 mi

Pressure: 29.84 "Hg (28.07 "Hg at 555m altitude)

Humidity: 19%

Dew Point: 50 °F

Location of Sunrise ManorLocation

Past Weather in Sunrise Manor — Graph

°F

Sunrise Manor Temperature Yesterday

Maximum temperature yesterday: 108 °F (at 4:02 PM)
Minimum temperature yesterday: 90 °F (at 11:58 PM)
Average temperature yesterday: 99 °F

High & Low Weather Summary for the Past Weeks

 TemperatureHumidityPressure
High113 °F (Jun 20, 3:58 PM)32% (Jun 27, 5:58 AM)30.04 "Hg (Jun 27, 5:58 AM)
Low72 °F (Jun 16, 5:58 AM)4% (Jun 18, 2:58 PM)29.58 "Hg (Jun 14, 7:58 PM)
Average94 °F13%29.77 "Hg
* Reported Jun 14 9:58 AM — Jun 29 9:58 AM, Sunrise Manor, Weather by CustomWeather, © 2016

Note: Actual official high and low records may vary slightly from our data, if they occured in-between our weather recording intervals... More about our weather records

Advertising

Sunrise Manor Weather History for the Previous 24 Hours

Scroll right to see more
 ConditionsComfort  
Time TempWeatherWind HumidityBarometerVisibility
9:58 AM
Wed, Jun 29
98 °FSunny.3 mph19%29.84 "Hg10 mi
8:58 AM94 °FSunny.1 mph22%29.84 "Hg10 mi
7:58 AM90 °FSunny.No wind24%29.83 "Hg10 mi
6:58 AM85 °FSunny.No wind29%29.83 "Hg10 mi
5:58 AM83 °FClear.3 mph31%29.83 "Hg10 mi
4:58 AM85 °FClear.2 mph31%29.81 "Hg10 mi
3:58 AM85 °FPassing clouds.3 mph32%29.80 "Hg10 mi
2:58 AM88 °FClear.7 mph28%29.79 "Hg10 mi
1:58 AM86 °FPassing clouds.7 mph31%29.78 "Hg10 mi
12:58 AM87 °FClear.9 mph30%29.80 "Hg10 mi
11:58 PM
Tue, Jun 28
90 °FClear.1 mph29%29.79 "Hg10 mi
10:58 PM91 °FClear.7 mph27%29.80 "Hg10 mi
9:58 PM93 °FClear.1 mph26%29.81 "Hg10 mi
8:58 PM96 °FSunny.8 mph21%29.79 "Hg10 mi
7:58 PM99 °FSunny.12 mph18%29.79 "Hg10 mi
6:58 PM97 °FScattered clouds.15 mph22%29.81 "Hg10 mi
5:58 PM104 °FScattered clouds.20 mph16%29.76 "Hg10 mi
4:58 PM105 °FSunny.18 mph15%29.76 "Hg10 mi
4:02 PM108 °FPassing clouds.17 mph13%29.85 "Hg10 mi
3:58 PM107 °FSunny.9 mph12%29.75 "Hg10 mi
2:58 PM107 °FSunny.3 mph12%29.79 "Hg10 mi
1:58 PM104 °FPassing clouds.5 mph13%29.82 "Hg10 mi
12:58 PM105 °FPassing clouds.6 mph13%29.83 "Hg10 mi
11:58 AM105 °FPassing clouds.9 mph13%29.85 "Hg10 mi
Weather by CustomWeather, © 2016

See weather overviewHow to use our weather pages